QPF
0.03 0.03 0.03 0.04 0.06 0.08 0.10 0.12 0.14 0.10 0.04 0.02 0.01 0.01 0.01 0.01 0.00 0.01 0.03 0.05 0.07 0.09 0.13 0.14 0.13 0.10 0.06 0.04 0.03 0.02 0.02 0.02 0.03 0.03 0.03 0.03 0.03 0.04 0.05 0.06 0.06 0.06 0.05
0.03 0.02 0.02 0.02 0.04 0.06 0.08 0.12 0.13 0.12 0.08 0.03 0.02 0.02 0.01 0.01 0.01 0.02 0.03 0.07 0.08 0.09 0.13 0.15 0.11 0.09 0.08 0.06 0.04 0.03 0.03 0.03 0.03 0.03 0.03 0.03 0.03 0.03 0.03 0.04 0.05 0.05 0.05
0.02 0.03 0.03 0.02 0.02 0.04 0.07 0.09 0.12 0.11 0.09 0.05 0.02 0.02 0.01 0.01 0.01 0.02 0.04 0.07 0.11 0.11 0.12 0.13 0.11 0.09 0.09 0.08 0.06 0.05 0.04 0.04 0.03 0.03 0.02 0.02 0.02 0.03 0.02 0.03 0.04 0.04 0.05
0.02 0.03 0.04 0.03 0.02 0.03 0.05 0.06 0.10 0.12 0.11 0.08 0.04 0.02 0.02 0.01 0.01 0.02 0.03 0.07 0.10 0.10 0.10 0.13 0.13 0.11 0.11 0.10 0.09 0.06 0.05 0.04 0.04 0.04 0.03 0.02 0.02 0.03 0.03 0.03 0.03 0.03 0.04
0.03 0.03 0.03 0.04 0.04 0.03 0.04 0.05 0.07 0.11 0.12 0.10 0.06 0.03 0.03 0.02 0.02 0.01 0.02 0.04 0.06 0.07 0.07 0.10 0.12 0.11 0.10 0.09 0.09 0.08 0.06 0.05 0.04 0.04 0.04 0.03 0.02 0.03 0.03 0.04 0.04 0.04 0.04
0.04 0.05 0.05 0.05 0.04 0.04 0.04 0.04 0.06 0.09 0.12 0.12 0.10 0.07 0.04 0.03 0.03 0.02 0.01 0.02 0.04 0.04 0.04 0.05 0.07 0.07 0.06 0.07 0.07 0.07 0.07 0.06 0.05 0.04 0.04 0.04 0.03 0.03 0.03 0.04 0.04 0.04 0.04
0.03 0.04 0.05 0.06 0.06 0.06 0.05 0.04 0.05 0.08 0.13 0.14 0.14 0.13 0.10 0.07 0.06 0.04 0.02 0.02 0.02 0.03 0.02 0.02 0.03 0.04 0.04 0.05 0.05 0.06 0.06 0.06 0.05 0.04 0.04 0.03 0.03 0.03 0.03 0.03 0.04 0.05 0.06
0.02 0.03 0.04 0.04 0.05 0.05 0.06 0.06 0.06 0.07 0.10 0.14 0.15 0.15 0.13 0.11 0.09 0.07 0.05 0.03 0.03 0.03 0.03 0.02 0.02 0.02 0.02 0.02 0.03 0.04 0.05 0.05 0.05 0.05 0.04 0.03 0.03 0.03 0.05 0.05 0.06 0.07 0.07
0.01 0.02 0.03 0.04 0.05 0.05 0.05 0.05 0.06 0.06 0.07 0.10 0.13 0.14 0.12 0.09 0.08 0.07 0.06 0.05 0.04 0.03 0.03 0.03 0.02 0.02 0.02 0.01 0.01 0.02 0.03 0.03 0.04 0.05 0.04 0.04 0.03 0.03 0.03 0.06 0.07 0.09 0.10
0.01 0.02 0.03 0.03 0.04 0.06 0.06 0.06 0.05 0.07 0.07 0.08 0.11 0.12 0.10 0.07 0.05 0.06 0.06 0.06 0.06 0.05 0.04 0.03 0.03 0.03 0.02 0.02 0.01 0.02 0.02 0.02 0.03 0.04 0.05 0.05 0.04 0.03 0.03 0.04 0.06 0.08 0.10
0.01 0.01 0.02 0.03 0.04 0.06 0.07 0.09 0.08 0.07 0.08 0.09 0.11 0.11 0.10 0.07 0.05 0.04 0.05 0.05 0.06 0.05 0.05 0.04 0.04 0.03 0.03 0.02 0.02 0.02 0.02 0.02 0.02 0.03 0.04 0.05 0.05 0.05 0.04 0.04 0.04 0.05 0.07
0.01 0.02 0.02 0.02 0.03 0.05 0.07 0.08 0.09 0.10 0.10 0.09 0.10 0.10 0.09 0.08 0.06 0.04 0.04 0.04 0.05 0.05 0.05 0.05 0.04 0.04 0.03 0.03 0.03 0.03 0.02 0.02 0.02 0.02 0.03 0.04 0.05 0.05 0.05 0.05 0.05 0.05 0.05
0.02 0.01 0.02 0.02 0.02 0.03 0.05 0.07 0.09 0.10 0.11 0.12 0.11 0.10 0.09 0.09 0.07 0.05 0.04 0.04 0.04 0.04 0.05 0.05 0.04 0.04 0.04 0.04 0.04 0.04 0.02 0.02 0.02 0.02 0.03 0.03 0.04 0.05 0.05 0.06 0.06 0.07 0.06
0.02 0.02 0.02 0.03 0.03 0.03 0.04 0.05 0.07 0.09 0.11 0.12 0.12 0.11 0.10 0.09 0.07 0.06 0.05 0.04 0.04 0.03 0.03 0.03 0.03 0.03 0.03 0.03 0.03 0.04 0.02 0.02 0.02 0.02 0.02 0.02 0.03 0.03 0.05 0.06 0.06 0.07 0.08
0.05 0.04 0.04 0.04 0.04 0.04 0.04 0.05 0.06 0.07 0.09 0.10 0.11 0.10 0.11 0.11 0.10 0.09 0.07 0.05 0.04 0.03 0.02 0.02 0.02 0.02 0.02 0.02 0.03 0.03 0.02 0.02 0.02 0.02 0.02 0.02 0.02 0.02 0.04 0.06 0.06 0.07 0.08
0.05 0.04 0.03 0.04 0.05 0.06 0.07 0.08 0.09 0.09 0.09 0.10 0.11 0.09 0.09 0.10 0.11 0.11 0.11 0.09 0.07 0.05 0.04 0.02 0.01 0.01 0.02 0.02 0.02 0.02 0.02 0.02 0.02 0.01 0.01 0.02 0.02 0.02 0.02 0.04 0.05 0.06 0.06
0.08 0.07 0.05 0.04 0.04 0.05 0.07 0.08 0.08 0.09 0.10 0.12 0.12 0.11 0.09 0.07 0.08 0.09 0.09 0.10 0.10 0.08 0.07 0.04 0.02 0.02 0.02 0.02 0.01 0.01 0.01 0.02 0.02 0.02 0.02 0.01 0.02 0.02 0.02 0.03 0.04 0.05 0.05
0.06 0.08 0.09 0.09 0.08 0.07 0.06 0.06 0.07 0.06 0.07 0.08 0.09 0.09 0.08 0.08 0.07 0.07 0.06 0.06 0.05 0.04 0.05 0.04 0.03 0.03 0.02 0.02 0.01 0.01 0.01 0.02 0.02 0.03 0.03 0.03 0.02 0.02 0.02 0.02 0.03 0.04 0.06
0.05 0.06 0.07 0.09 0.10 0.10 0.09 0.07 0.07 0.06 0.06 0.07 0.07 0.06 0.06 0.06 0.06 0.06 0.05 0.05 0.04 0.03 0.03 0.03 0.02 0.03 0.03 0.03 0.02 0.02 0.02 0.01 0.02 0.02 0.03 0.03 0.03 0.03 0.02 0.02 0.03 0.04 0.05
0.04 0.05 0.06 0.07 0.09 0.10 0.10 0.09 0.07 0.05 0.05 0.06 0.06 0.06 0.05 0.04 0.04 0.04 0.05 0.04 0.03 0.04 0.04 0.04 0.03 0.02 0.02 0.02 0.03 0.03 0.02 0.02 0.02 0.02 0.02 0.03 0.03 0.03 0.03 0.03 0.03 0.04 0.04
0.04 0.04 0.04 0.05 0.06 0.07 0.09 0.10 0.10 0.09 0.07 0.06 0.06 0.06 0.06 0.06 0.05 0.05 0.05 0.04 0.04 0.04 0.03 0.03 0.03 0.03 0.02 0.02 0.02 0.02 0.02 0.02 0.02 0.02 0.02 0.02 0.02 0.03 0.03 0.03 0.03 0.03 0.04
0.04 0.05 0.05 0.05 0.05 0.06 0.07 0.09 0.11 0.11 0.10 0.08 0.07 0.07 0.07 0.08 0.07 0.05 0.05 0.04 0.04 0.04 0.05 0.04 0.03 0.03 0.02 0.02 0.02 0.03 0.03 0.04 0.04 0.03 0.03 0.03 0.04 0.03 0.03 0.03 0.02 0.02 0.03
0.03 0.03 0.04 0.04 0.05 0.05 0.07 0.08 0.09 0.10 0.10 0.09 0.08 0.07 0.07 0.07 0.07 0.06 0.05 0.04 0.04 0.04 0.05 0.04 0.04 0.02 0.02 0.01 0.02 0.03 0.04 0.04 0.04 0.04 0.05 0.05 0.05 0.05 0.04 0.03 0.03 0.02 0.03
0.02 0.02 0.02 0.03 0.03 0.04 0.05 0.06 0.08 0.09 0.10 0.09 0.08 0.07 0.06 0.07 0.07 0.07 0.07 0.05 0.04 0.04 0.04 0.03 0.03 0.03 0.02 0.02 0.03 0.04 0.04 0.04 0.04 0.05 0.07 0.08 0.07 0.06 0.05 0.04 0.03 0.03 0.02
0.01 0.02 0.02 0.02 0.02 0.03 0.03 0.04 0.06 0.07 0.08 0.08 0.08 0.07 0.07 0.06 0.07 0.07 0.07 0.06 0.04 0.04 0.04 0.04 0.04 0.04 0.04 0.04 0.04 0.05 0.06 0.06 0.05 0.05 0.06 0.07 0.07 0.06 0.06 0.05 0.03 0.03 0.02
0.01 0.01 0.01 0.01 0.02 0.02 0.03 0.04 0.05 0.05 0.06 0.07 0.06 0.06 0.07 0.06 0.07 0.07 0.07 0.06 0.05 0.04 0.03 0.04 0.04 0.04 0.03 0.03 0.04 0.04 0.05 0.07 0.06 0.05 0.04 0.04 0.05 0.05 0.06 0.05 0.04 0.02 0.02
MSLP
1028.98 1028.96 1028.89 1028.78 1028.65 1028.52 1028.41 1028.33 1028.30 1028.33 1028.40 1028.51 1028.61 1028.69 1028.71 1028.63 1028.45 1028.13 1027.70 1027.17 1026.56 1025.92 1025.27 1024.67 1024.13 1023.67 1023.31 1023.05 1022.86 1022.74 1022.66 1022.61 1022.56 1022.51 1022.45 1022.37 1022.28 1022.17 1022.03 1021.87 1021.68 1021.45 1021.19
1029.53 1029.45 1029.33 1029.20 1029.06 1028.94 1028.85 1028.80 1028.79 1028.84 1028.93 1029.04 1029.16 1029.25 1029.29 1029.25 1029.12 1028.87 1028.49 1028.01 1027.44 1026.79 1026.12 1025.46 1024.84 1024.28 1023.82 1023.46 1023.18 1022.99 1022.86 1022.76 1022.70 1022.64 1022.57 1022.49 1022.39 1022.28 1022.13 1021.97 1021.77 1021.54 1021.27
1029.96 1029.83 1029.68 1029.54 1029.40 1029.31 1029.25 1029.23 1029.27 1029.34 1029.44 1029.56 1029.68 1029.79 1029.85 1029.85 1029.77 1029.59 1029.29 1028.87 1028.35 1027.73 1027.06 1026.37 1025.69 1025.06 1024.51 1024.06 1023.70 1023.43 1023.23 1023.08 1022.97 1022.88 1022.79 1022.68 1022.57 1022.44 1022.28 1022.10 1021.89 1021.66 1021.39
1030.33 1030.16 1029.99 1029.84 1029.72 1029.65 1029.64 1029.66 1029.72 1029.82 1029.93 1030.05 1030.17 1030.28 1030.36 1030.39 1030.36 1030.25 1030.03 1029.69 1029.24 1028.68 1028.04 1027.35 1026.65 1025.98 1025.37 1024.84 1024.40 1024.05 1023.78 1023.57 1023.40 1023.25 1023.11 1022.96 1022.81 1022.64 1022.46 1022.27 1022.05 1021.81 1021.54
1030.66 1030.47 1030.29 1030.14 1030.04 1030.00 1030.02 1030.08 1030.16 1030.26 1030.37 1030.48 1030.58 1030.68 1030.76 1030.83 1030.85 1030.80 1030.66 1030.41 1030.05 1029.57 1028.99 1028.34 1027.66 1026.97 1026.33 1025.75 1025.25 1024.83 1024.48 1024.19 1023.94 1023.72 1023.51 1023.30 1023.09 1022.88 1022.67 1022.45 1022.22 1021.97 1021.70
1030.99 1030.78 1030.59 1030.45 1030.36 1030.35 1030.38 1030.45 1030.54 1030.64 1030.73 1030.81 1030.89 1030.97 1031.05 1031.13 1031.19 1031.21 1031.15 1031.00 1030.74 1030.35 1029.86 1029.28 1028.64 1027.97 1027.33 1026.72 1026.17 1025.68 1025.26 1024.88 1024.55 1024.23 1023.94 1023.65 1023.38 1023.12 1022.87 1022.63 1022.39 1022.14 1021.88
1031.29 1031.07 1030.88 1030.74 1030.67 1030.66 1030.70 1030.77 1030.85 1030.93 1030.99 1031.04 1031.09 1031.15 1031.23 1031.32 1031.41 1031.48 1031.50 1031.44 1031.28 1031.00 1030.61 1030.11 1029.53 1028.91 1028.28 1027.66 1027.08 1026.54 1026.04 1025.58 1025.15 1024.74 1024.36 1023.99 1023.65 1023.34 1023.05 1022.80 1022.55 1022.31 1022.06
1031.55 1031.32 1031.13 1030.99 1030.92 1030.92 1030.95 1031.01 1031.08 1031.13 1031.16 1031.18 1031.20 1031.24 1031.31 1031.40 1031.52 1031.64 1031.73 1031.76 1031.69 1031.51 1031.21 1030.80 1030.30 1029.73 1029.12 1028.51 1027.90 1027.31 1026.75 1026.21 1025.70 1025.20 1024.74 1024.30 1023.90 1023.54 1023.23 1022.96 1022.72 1022.49 1022.26
1031.73 1031.51 1031.32 1031.19 1031.12 1031.11 1031.14 1031.18 1031.23 1031.26 1031.26 1031.26 1031.26 1031.28 1031.35 1031.45 1031.60 1031.75 1031.89 1031.99 1031.99 1031.90 1031.68 1031.35 1030.91 1030.39 1029.82 1029.21 1028.59 1027.97 1027.35 1026.75 1026.16 1025.60 1025.07 1024.57 1024.12 1023.74 1023.41 1023.14 1022.91 1022.71 1022.50
1031.83 1031.62 1031.45 1031.32 1031.25 1031.24 1031.26 1031.29 1031.32 1031.34 1031.33 1031.32 1031.31 1031.33 1031.40 1031.51 1031.67 1031.86 1032.03 1032.17 1032.23 1032.20 1032.04 1031.77 1031.39 1030.91 1030.37 1029.77 1029.14 1028.49 1027.84 1027.19 1026.56 1025.95 1025.37 1024.84 1024.37 1023.97 1023.64 1023.38 1023.17 1022.99 1022.80
1031.86 1031.67 1031.52 1031.40 1031.34 1031.33 1031.34 1031.37 1031.40 1031.40 1031.40 1031.38 1031.38 1031.41 1031.49 1031.61 1031.78 1031.98 1032.18 1032.34 1032.44 1032.44 1032.33 1032.10 1031.76 1031.32 1030.79 1030.20 1029.57 1028.91 1028.24 1027.57 1026.91 1026.28 1025.69 1025.15 1024.68 1024.28 1023.96 1023.71 1023.52 1023.35 1023.18
1031.84 1031.68 1031.55 1031.45 1031.40 1031.39 1031.41 1031.43 1031.46 1031.47 1031.47 1031.47 1031.48 1031.52 1031.60 1031.74 1031.92 1032.12 1032.32 1032.50 1032.61 1032.63 1032.55 1032.36 1032.04 1031.63 1031.12 1030.55 1029.93 1029.28 1028.60 1027.93 1027.28 1026.65 1026.06 1025.54 1025.08 1024.70 1024.39 1024.15 1023.96 1023.80 1023.62
1031.79 1031.66 1031.55 1031.47 1031.44 1031.43 1031.44 1031.47 1031.49 1031.51 1031.52 1031.54 1031.56 1031.62 1031.72 1031.85 1032.03 1032.24 1032.44 1032.62 1032.74 1032.78 1032.72 1032.55 1032.27 1031.88 1031.41 1030.86 1030.26 1029.63 1028.98 1028.33 1027.69 1027.09 1026.53 1026.04 1025.60 1025.24 1024.94 1024.70 1024.50 1024.32 1024.13
1031.71 1031.60 1031.52 1031.46 1031.43 1031.42 1031.43 1031.46 1031.48 1031.50 1031.52 1031.55 1031.59 1031.66 1031.76 1031.90 1032.07 1032.27 1032.48 1032.65 1032.79 1032.84 1032.81 1032.68 1032.44 1032.10 1031.66 1031.16 1030.60 1030.00 1029.39 1028.78 1028.19 1027.63 1027.12 1026.65 1026.24 1025.89 1025.60 1025.34 1025.12 1024.90 1024.67
1031.60 1031.51 1031.43 1031.38 1031.34 1031.33 1031.33 1031.35 1031.37 1031.39 1031.41 1031.45 1031.49 1031.56 1031.67 1031.80 1031.98 1032.17 1032.37 1032.56 1032.71 1032.80 1032.81 1032.73 1032.54 1032.26 1031.89 1031.45 1030.95 1030.41 1029.86 1029.31 1028.77 1028.27 1027.80 1027.37 1026.98 1026.64 1026.33 1026.04 1025.78 1025.51 1025.23
1031.43 1031.35 1031.27 1031.21 1031.16 1031.13 1031.11 1031.11 1031.12 1031.13 1031.16 1031.19 1031.24 1031.31 1031.40 1031.54 1031.70 1031.89 1032.10 1032.31 1032.48 1032.62 1032.68 1032.67 1032.56 1032.36 1032.08 1031.72 1031.30 1030.84 1030.36 1029.88 1029.41 1028.96 1028.54 1028.14 1027.77 1027.43 1027.09 1026.77 1026.45 1026.12 1025.78
1031.22 1031.12 1031.02 1030.93 1030.85 1030.79 1030.74 1030.72 1030.71 1030.71 1030.73 1030.76 1030.80 1030.86 1030.96 1031.08 1031.24 1031.43 1031.65 1031.87 1032.09 1032.28 1032.41 1032.48 1032.47 1032.37 1032.18 1031.92 1031.60 1031.24 1030.86 1030.46 1030.06 1029.67 1029.30 1028.93 1028.57 1028.22 1027.85 1027.49 1027.11 1026.73 1026.33
1030.95 1030.82 1030.68 1030.55 1030.43 1030.33 1030.24 1030.19 1030.16 1030.15 1030.15 1030.17 1030.21 1030.27 1030.36 1030.47 1030.62 1030.81 1031.04 1031.28 1031.54 1031.78 1031.99 1032.15 1032.23 1032.24 1032.17 1032.02 1031.81 1031.56 1031.27 1030.96 1030.65 1030.33 1030.00 1029.67 1029.32 1028.96 1028.58 1028.17 1027.75 1027.32 1026.88
1030.68 1030.50 1030.31 1030.12 1029.94 1029.78 1029.66 1029.57 1029.51 1029.48 1029.48 1029.49 1029.52 1029.57 1029.65 1029.75 1029.89 1030.08 1030.30 1030.57 1030.86 1031.15 1031.43 1031.66 1031.84 1031.96 1032.00 1031.96 1031.87 1031.73 1031.55 1031.34 1031.11 1030.87 1030.60 1030.31 1029.98 1029.62 1029.23 1028.80 1028.35 1027.89 1027.43
1030.45 1030.20 1029.94 1029.68 1029.44 1029.22 1029.05 1028.91 1028.83 1028.78 1028.76 1028.77 1028.79 1028.83 1028.88 1028.97 1029.10 1029.27 1029.50 1029.77 1030.07 1030.40 1030.72 1031.03 1031.29 1031.49 1031.64 1031.71 1031.73 1031.70 1031.63 1031.52 1031.39 1031.23 1031.03 1030.79 1030.51 1030.18 1029.79 1029.37 1028.91 1028.45 1027.99
1030.31 1029.99 1029.65 1029.31 1028.99 1028.71 1028.47 1028.29 1028.16 1028.09 1028.05 1028.04 1028.04 1028.06 1028.11 1028.17 1028.28 1028.43 1028.64 1028.90 1029.21 1029.55 1029.90 1030.25 1030.57 1030.84 1031.07 1031.24 1031.36 1031.44 1031.48 1031.48 1031.45 1031.38 1031.27 1031.10 1030.88 1030.59 1030.24 1029.85 1029.42 1028.98 1028.54
1030.28 1029.88 1029.45 1029.03 1028.63 1028.27 1027.97 1027.73 1027.56 1027.44 1027.37 1027.33 1027.31 1027.30 1027.32 1027.36 1027.43 1027.56 1027.74 1027.98 1028.27 1028.61 1028.96 1029.33 1029.68 1030.01 1030.30 1030.55 1030.76 1030.94 1031.08 1031.20 1031.27 1031.31 1031.29 1031.21 1031.07 1030.85 1030.57 1030.23 1029.86 1029.46 1029.07
1030.34 1029.86 1029.36 1028.86 1028.37 1027.94 1027.56 1027.25 1027.01 1026.83 1026.71 1026.62 1026.57 1026.53 1026.51 1026.52 1026.56 1026.65 1026.80 1027.01 1027.28 1027.59 1027.94 1028.30 1028.67 1029.02 1029.36 1029.67 1029.96 1030.23 1030.47 1030.69 1030.87 1031.02 1031.11 1031.13 1031.08 1030.96 1030.77 1030.51 1030.21 1029.88 1029.56
1030.44 1029.90 1029.33 1028.75 1028.18 1027.66 1027.20 1026.81 1026.49 1026.24 1026.05 1025.91 1025.80 1025.72 1025.66 1025.63 1025.64 1025.70 1025.82 1026.00 1026.23 1026.51 1026.84 1027.19 1027.55 1027.92 1028.28 1028.64 1029.00 1029.34 1029.67 1029.99 1030.28 1030.54 1030.74 1030.88 1030.94 1030.92 1030.82 1030.66 1030.45 1030.21 1029.96
1030.51 1029.91 1029.28 1028.63 1027.99 1027.39 1026.85 1026.37 1025.97 1025.64 1025.37 1025.16 1024.99 1024.85 1024.76 1024.69 1024.68 1024.71 1024.80 1024.95 1025.15 1025.40 1025.70 1026.03 1026.39 1026.76 1027.14 1027.53 1027.94 1028.35 1028.76 1029.17 1029.56 1029.92 1030.23 1030.48 1030.65 1030.74 1030.75 1030.69 1030.59 1030.44 1030.27
1030.47 1029.83 1029.15 1028.44 1027.75 1027.08 1026.45 1025.89 1025.40 1024.99 1024.64 1024.36 1024.13 1023.95 1023.81 1023.72 1023.68 1023.70 1023.77 1023.89 1024.07 1024.30 1024.58 1024.89 1025.23 1025.60 1025.99 1026.41 1026.86 1027.32 1027.80 1028.29 1028.77 1029.23 1029.64 1029.98 1030.25 1030.45 1030.56 1030.61 1030.60 1030.55 1030.47
Thickness
5608 5609 5610 5611 5612 5614 5615 5616 5618 5619 5621 5622 5623 5624 5625 5626 5628 5629 5631 5634 5636 5637 5637 5637 5637 5638 5638 5638 5638 5638 5638 5639 5639 5640 5640 5641 5641 5640 5640 5640 5640 5640 5640
5599 5600 5601 5601 5603 5604 5606 5607 5609 5610 5611 5612 5613 5614 5615 5617 5618 5620 5621 5624 5625 5627 5628 5628 5629 5629 5629 5630 5629 5630 5630 5631 5631 5632 5632 5632 5632 5632 5632 5632 5632 5632 5632
5589 5590 5591 5592 5593 5594 5596 5597 5598 5600 5601 5602 5603 5604 5605 5606 5608 5610 5611 5613 5615 5616 5617 5618 5619 5619 5620 5621 5621 5621 5621 5622 5622 5623 5623 5624 5624 5623 5624 5624 5624 5624 5624
5578 5579 5580 5581 5582 5584 5586 5587 5588 5589 5590 5591 5592 5593 5594 5596 5597 5599 5601 5602 5604 5605 5606 5607 5608 5609 5610 5611 5611 5612 5612 5612 5613 5613 5614 5615 5615 5615 5615 5615 5615 5616 5617
5567 5568 5569 5570 5572 5573 5575 5576 5577 5578 5579 5580 5580 5582 5583 5585 5586 5588 5590 5591 5592 5593 5595 5596 5597 5598 5599 5600 5601 5602 5603 5603 5603 5604 5604 5605 5605 5606 5606 5606 5606 5607 5608
5555 5557 5558 5559 5561 5562 5563 5565 5566 5567 5568 5569 5569 5569 5570 5572 5573 5575 5577 5579 5580 5581 5582 5584 5585 5586 5587 5588 5589 5591 5591 5593 5593 5594 5594 5595 5595 5596 5596 5597 5597 5598 5599
5543 5544 5546 5548 5549 5551 5552 5553 5554 5555 5555 5557 5557 5557 5558 5559 5560 5562 5564 5565 5566 5567 5569 5571 5573 5574 5575 5575 5577 5578 5580 5581 5583 5584 5584 5585 5586 5586 5587 5588 5589 5589 5590
5530 5532 5534 5536 5537 5538 5540 5541 5542 5543 5543 5545 5545 5545 5545 5547 5548 5549 5550 5552 5552 5554 5555 5557 5559 5561 5562 5563 5564 5566 5568 5569 5571 5573 5574 5575 5576 5576 5577 5578 5579 5580 5581
5518 5519 5521 5524 5525 5527 5528 5530 5531 5532 5531 5532 5533 5534 5534 5536 5534 5536 5537 5538 5538 5540 5542 5543 5545 5546 5548 5550 5551 5553 5555 5557 5558 5560 5562 5563 5565 5566 5567 5568 5569 5570 5571
5505 5507 5509 5511 5513 5514 5516 5518 5519 5520 5521 5520 5520 5520 5521 5523 5523 5523 5524 5524 5525 5527 5528 5529 5530 5532 5534 5536 5538 5539 5541 5544 5546 5547 5549 5551 5553 5554 5555 5557 5558 5559 5561
5493 5494 5496 5497 5499 5501 5503 5505 5506 5508 5509 5510 5509 5507 5507 5507 5510 5512 5512 5511 5511 5513 5514 5516 5517 5518 5520 5522 5524 5526 5528 5530 5532 5534 5536 5538 5540 5541 5543 5544 5546 5547 5549
5479 5481 5482 5484 5486 5488 5490 5491 5493 5494 5496 5497 5498 5497 5497 5496 5496 5497 5498 5498 5498 5499 5501 5502 5503 5504 5506 5508 5510 5511 5513 5516 5518 5520 5522 5524 5526 5528 5530 5531 5533 5535 5536
5467 5468 5470 5471 5473 5475 5477 5478 5479 5481 5482 5484 5485 5485 5485 5485 5485 5484 5484 5482 5483 5485 5486 5488 5490 5491 5493 5494 5495 5497 5499 5502 5505 5506 5508 5510 5512 5514 5516 5518 5520 5521 5524
5456 5456 5457 5458 5460 5462 5463 5464 5465 5466 5468 5470 5471 5472 5472 5471 5472 5472 5471 5468 5468 5470 5472 5475 5476 5478 5479 5480 5481 5483 5485 5488 5491 5493 5495 5497 5499 5501 5503 5505 5506 5508 5510
5444 5444 5444 5445 5447 5448 5450 5451 5452 5453 5454 5455 5457 5457 5457 5457 5457 5458 5458 5457 5457 5457 5462 5463 5462 5464 5465 5466 5468 5470 5472 5474 5477 5480 5482 5483 5485 5488 5490 5492 5493 5495 5497
5431 5431 5432 5433 5433 5435 5437 5438 5439 5440 5440 5441 5442 5443 5443 5443 5443 5442 5443 5444 5444 5446 5447 5450 5449 5450 5451 5452 5453 5456 5458 5461 5464 5466 5469 5471 5473 5475 5477 5479 5480 5482 5483
5418 5418 5419 5420 5421 5422 5423 5425 5426 5426 5426 5427 5429 5429 5430 5429 5429 5429 5429 5429 5430 5431 5432 5434 5435 5436 5436 5438 5439 5441 5444 5447 5450 5452 5455 5457 5459 5462 5464 5465 5467 5468 5471
5405 5405 5406 5407 5408 5409 5409 5411 5412 5412 5413 5414 5415 5416 5416 5416 5415 5415 5415 5415 5416 5417 5417 5419 5421 5421 5423 5425 5426 5428 5430 5433 5436 5438 5441 5444 5446 5448 5450 5452 5454 5455 5457
5392 5392 5393 5394 5395 5395 5396 5397 5398 5399 5400 5401 5402 5403 5404 5403 5403 5402 5403 5402 5403 5404 5404 5405 5407 5408 5409 5411 5412 5414 5416 5418 5421 5424 5427 5430 5432 5434 5436 5438 5440 5442 5443
5379 5379 5380 5381 5381 5382 5383 5383 5384 5386 5387 5388 5389 5390 5391 5391 5392 5391 5391 5390 5390 5390 5391 5392 5393 5393 5394 5396 5397 5398 5401 5404 5407 5409 5412 5415 5417 5420 5422 5425 5427 5428 5429
5365 5365 5366 5367 5367 5368 5369 5370 5371 5372 5374 5375 5376 5377 5378 5379 5380 5380 5380 5379 5378 5378 5379 5379 5380 5381 5381 5381 5383 5385 5387 5389 5391 5393 5396 5400 5402 5405 5407 5409 5411 5413 5415
5351 5352 5353 5353 5353 5354 5356 5358 5358 5358 5360 5361 5363 5364 5365 5366 5367 5367 5368 5368 5368 5367 5368 5368 5369 5370 5371 5370 5370 5370 5370 5371 5376 5380 5380 5384 5386 5390 5392 5395 5397 5398 5400
5338 5338 5339 5340 5340 5341 5343 5345 5345 5346 5347 5348 5349 5350 5351 5352 5352 5352 5352 5353 5354 5355 5356 5356 5357 5357 5357 5358 5357 5357 5356 5357 5361 5363 5362 5369 5371 5374 5377 5379 5382 5384 5385
5324 5325 5326 5326 5327 5328 5329 5331 5332 5333 5334 5334 5335 5336 5337 5338 5338 5338 5338 5338 5339 5340 5341 5342 5343 5344 5343 5342 5342 5343 5343 5343 5345 5346 5347 5351 5356 5359 5362 5365 5367 5369 5370
5311 5312 5313 5313 5313 5315 5316 5317 5318 5318 5320 5321 5322 5323 5323 5324 5324 5325 5325 5325 5326 5326 5326 5327 5329 5329 5329 5328 5327 5326 5325 5326 5330 5332 5332 5334 5340 5342 5347 5350 5353 5354 5355
5298 5299 5299 5299 5300 5301 5302 5304 5304 5305 5307 5308 5308 5309 5310 5310 5311 5311 5310 5311 5311 5312 5311 5312 5313 5313 5313 5312 5312 5311 5311 5310 5313 5317 5320 5319 5322 5323 5328 5336 5338 5338 5339